Погода в Кирове

Россия / Калужская область     54°04′46″N   34°18′28″E
темп.,
°C
ветер,
м/с
пор.,
м/с
влажн.,
%
обл.,
%
осадки,
мм/ч
давл.,
гПа
погр.,
м
25 июля, вс
вс2500:00+12вюв22750 0.0 101822
03:00+11в11740 0.0 101910
06:00+13в22735 0.0 101936
09:00+20вюв22514 0.0 1020454
12:00+24юв12413 0.0 10201915
15:00+22юв2352100 0.0 1020452
18:00+21в355969 0.0 1020352
21:00+18юв237322 0.0 102166
26 июля, пн
пн2600:00+16юв237499 0.0 102249
03:00+17ююв127584 0.0 102226
06:00+17ю237889 0.0 102376
09:00+19ю2373100 0.0 1023183
12:00+26ю12450 0.0 10231442
15:00+25ю2252100 0.0 1022290
18:00+25ю225360 0.0 1021706
21:00+20ююв1169100 0.0 102211
27 июля, вт
вт2700:00+19ююз237432 0.0 102268
03:00+16ююз1186100 0.1 102314
06:00+16ююв2290100 0.3 102337
09:00+22ююв236818 0.3 1022355
12:00+27ююз234225 0.0 10211500
15:00+28юз344030 0.0 10201814
18:00+26юз234980 0.0 1019679
21:00+20вюв227028 0.0 101830
28 июля, ср
ср2800:00+18юв3675100 0.0 1018102
03:00+18ююз2973100 0.1 1018285
06:00+18юв3972100 0.0 1015234
09:00+17вюв3682100 0.3 1015137
12:00+19юв5108393 1.1 1013370
15:00+24ю5864100 1.3 10111273
18:00+21юз389161 3.8 1010661
21:00+19з26975 4.9 1010152
29 июля, чт
чт2900:00+17зюз24960 0.1 101063
03:00+17зюз24960 0.1 101069
06:00+16з299474 0.4 1010193
09:00+21зсз477596 0.4 1010432
12:00+26з575190 0.0 10101857
15:00+28зсз574015 0.0 10102380
18:00+26зсз48462 0.0 10101909
21:00+20зюз22695 0.0 101026